Home   Weather   Inverness   Past weeks

Flag for United Kingdom Past Weather in Inverness, Scotland, United Kingdom — Yesterday and Last 2 Weeks

Now
28 °F

Chilly.


Feels Like: 21 °F
Forecast: 30 / 39 °F
Wind: 7 mph from West

Location: Inverness / Dalcross

Current Time: Jan 22, 2017 at 6:03:09 am

Latest Report: Jan 22, 2017 at 5:20 am


Visibility: N/A

Pressure: 30.21 "Hg

Humidity: 93%

Dew Point: 27 °F

Location of InvernessLocation

Past Weather in Inverness — Graph

°F

Inverness Temperature Yesterday

Maximum temperature yesterday: 45 °F (at 1:50 pm)
Minimum temperature yesterday: 25 °F (at 8:50 pm)
Average temperature yesterday: 33 °F

High & Low Weather Summary for the Past Weeks

 TemperatureHumidityPressure
High54 °F (Jan 17, 12:50 pm)100% (Jan 7, 5:50 am)30.54 "Hg (Jan 7, 5:50 am)
Low25 °F (Jan 20, 11:20 pm)70% (Jan 11, 2:20 pm)29.06 "Hg (Jan 11, 12:20 am)
Average41 °F88%30.03 "Hg
* Reported Jan 7 4:20 am — Jan 22 4:50 am, Inverness, Weather by CustomWeather, © 2017

Note: Actual official high and low records may vary slightly from our data, if they occured in-between our weather recording intervals... More about our weather records

Advertising

Inverness Weather History for the Previous 24 Hours

Scroll right to see more
 ConditionsComfort  
Time TempWeatherWind HumidityBarometerVisibility
4:50 am
Sun, Jan 22
28 °FChilly.8 mph100%30.21 "HgN/A
4:20 am28 °FChilly.8 mph100%30.21 "HgN/A
3:50 am28 °FChilly.7 mph100%30.21 "HgN/A
3:20 am30 °FChilly.9 mph93%30.21 "HgN/A
2:50 am30 °FChilly.6 mph93%30.21 "HgN/A
2:20 am28 °FChilly.7 mph93%30.21 "HgN/A
1:50 am27 °FChilly.3 mph93%30.24 "HgN/A
1:20 am28 °FChilly.3 mph93%30.24 "HgN/A
12:50 am32 °FChilly.1 mph87%30.24 "HgN/A
12:20 am30 °FChilly.6 mph93%30.24 "HgN/A
11:20 pm
Sat, Jan 21
30 °FChilly.2 mph93%30.24 "HgN/A
10:50 pm25 °FCold.2 mph100%30.24 "HgN/A
10:20 pm25 °FCold.No wind100%30.24 "HgN/A
9:50 pm25 °FCold.3 mph100%30.27 "HgN/A
9:20 pm25 °FCold.3 mph100%30.27 "HgN/A
8:50 pm25 °FCold.No wind100%30.27 "HgN/A
8:20 pm28 °FClear.2 mph93%30.27 "Hg10 mi
7:50 pm28 °FClear.2 mph93%30.27 "Hg10 mi
7:20 pm27 °FClear.No wind100%30.27 "Hg10 mi
6:50 pm27 °FClear.1 mph93%30.27 "Hg10 mi
6:20 pm27 °FClear.2 mph100%30.27 "Hg10 mi
5:50 pm28 °FClear.No wind100%30.27 "Hg10 mi
5:20 pm28 °FClear.1 mph100%30.27 "Hg10 mi
4:50 pm30 °FClear.1 mph93%30.27 "Hg10 mi
4:20 pm34 °FClear.1 mph87%30.27 "Hg10 mi
3:50 pm37 °FSunny.2 mph87%30.27 "Hg10 mi
3:20 pm41 °FSunny.5 mph81%30.27 "Hg10 mi
2:50 pm43 °FSunny.1 mph81%30.27 "Hg10 mi
2:20 pm43 °FSunny.1 mph76%30.30 "Hg10 mi
1:50 pm45 °FSunny.No wind76%30.30 "Hg10 mi
1:20 pm43 °FSunny.1 mph76%30.30 "Hg10 mi
12:50 pm43 °FFog.No wind76%30.33 "HgN/A
12:20 pm41 °FFog.1 mph81%30.33 "HgN/A
11:50 am43 °FFog.No wind76%30.33 "HgN/A
11:20 am37 °FPassing clouds.No wind87%30.36 "HgN/A
10:50 am39 °FPassing clouds.2 mph81%30.36 "HgN/A
10:20 am36 °FFog.1 mph93%30.36 "HgN/A
9:50 am34 °FFog.No wind93%30.36 "HgN/A
9:20 am30 °FFog.1 mph100%30.36 "HgN/A
8:50 am30 °FSunny.1 mph93%30.36 "Hg10 mi
8:20 am32 °FClear.1 mph93%30.36 "Hg10 mi
7:50 am32 °FClear.No wind93%30.36 "Hg10 mi
7:20 am32 °FClear.6 mph93%30.36 "Hg10 mi
6:50 am34 °FClear.10 mph93%30.36 "Hg10 mi
6:20 am34 °FClear.9 mph93%30.36 "Hg10 mi
Weather by CustomWeather, © 2017

See weather overviewHow to use our weather pages